Regional Weather Roundup
Issued by NWS Grand Forks, ND

Home | Current Version | Previous Version | Text Only | Print | Product List | Glossary Off
Versions: 1 2 3 4 5 6 7 8 9 10 11 12 13 14 15 16 17 18 19 20 21 22 23 24 25 26 27 28 29 30 31 32 33 34 35 36 37 38 39 40 41 42 43 44 45 46 47 48 49 50

000
ASUS43 KFGF 012110
RWRFGF
PRAIRIE TO PINES  WEATHER ROUNDUP
NATIONAL WEATHER SERVICE EASTERN NORTH DAKOTA/GRAND FORKS ND
400 PM CDT WED APR 01 2015

 **SATELLITE DATA USED TO AUGMENT SKY COVER AT AUTOMATED STATIONS**
 *****  WEATHER ACROSS EASTERN NORTH DAKOTA  *****

CITY           SKY/WX    TMP DP  RH WIND       PRES   REMARKS
GRAND FORKS    CLOUDY    64  39  39 NW22G28   29.38R
GRAND FRKS AFB CLOUDY    61  41  47 W23G32    29.39R
GRAND FRKS NWS   N/A     63 N/A N/A N9          N/A
DEVILS LAKE    CLOUDY    57  43  58 NW29G37   29.43S
FARGO          MOSUNNY   69  36  29 W30G41    29.38R
WAHPETON ARPT  CLOUDY    68  34  28 W22G30    29.42R
$$

 ***** WEATHER ACROSS CENTRAL AND WESTERN NORTH DAKOTA  *****

CITY           SKY/WX    TMP DP  RH WIND       PRES   REMARKS
BISMARCK       SUNNY     63  26  24 NW21G36   29.58R
MINOT          LGT RAIN  54  33  45 W29G39    29.55R
JAMESTOWN      CLOUDY    64  33  31 W31G38    29.47R
MINOT AFB      PTSUNNY   53  37  54 NW29G39   29.53R
GARRISON         N/A     57  32  38 NW31G45   29.56R
WILLISTON      CLOUDY    54  23  30 W23G37    29.64S
DICKINSON      MOSUNNY   55  24  30 W32G43    29.63S
HETTINGER      PTSUNNY   57  22  25 NW29G41   29.69R
$$

 *****  OTHER AIRPORT OBSERVATIONS IN OUR AREA  *****

CITY           SKY/WX    TMP DP  RH WIND       PRES   REMARKS
WALHALLA       NOT AVBL
GRAFTON AIRPOR NOT AVBL
VALLEY CITY AR FAIR      63  41  45 NW33G41   29.45R
CANDO          NOT AVBL
CAVALIER APRT  FAIR      59  43  55 W20       29.37R
GWINNER        CLEAR     66  43  42 NW26G37     N/A
SHEYENNE NWR     N/A     66  39  37 NW22      29.95
ROLLA          MOCLDY    54  43  66 W22G32    29.45R
 ***** THE ABOVE OBSERVATIONS ARE NON NWS ARE NOT QUALITY
       CONTROLLED AND MAY MIS-REPORT RAIN FOR SNOW...
$$

  *****  WEATHER ACROSS NORTHERN MINNESOTA  *****

CITY           SKY/WX    TMP DP  RH WIND       PRES   REMARKS
FLAG ISLAND    MOSUNNY   52  34  50 SE15      29.32F
WARROAD        NOT AVBL
ROSEAU         MOSUNNY   64  43  45 S8        29.33F
HALLOCK        PTSUNNY   61  43  51 W14       29.34R
THF RVR FALLS  MOSUNNY   66  39  37 SW14      29.34S
BAUDETTE       CLOUDY    65  38  36 S14       29.35S
WASKISH        PTSUNNY   64  39  39 S7G21     29.35R
CROOKSTON      PTSUNNY   66  39  37 NW28      29.35R
STEPHEN NDAWN    N/A     64  43  45 W18         N/A
GREENBUSH NDAW   N/A     64  45  48 SW16        N/A
$$
  *****  WEATHER ACROSS CENTRAL AND WEST MINNESOTA  *****

CITY           SKY/WX    TMP DP  RH WIND       PRES   REMARKS
FOSSTON        PTSUNNY   70  43  37 SW18      29.35R
BEMIDJI        CLOUDY    68  41  37 S16G24    29.36R
PARK RAPIDS    CLOUDY    68  39  34 SW23G32   29.39R
ELBOW LAKE     FAIR      67  41  39 W17       29.44R
WADENA         CLOUDY    66  45  45 SW15G22   29.40F
DETROIT LAKES  CLOUDY    68  37  32 SW15      29.39S
MOORHEAD       PTSUNNY   72  28  20 W26G32    29.39R
FERGUS FALLS   CLOUDY    70  28  21 W18G26    29.42S
MORRIS MN      CLOUDY    72  45  37 W13G18    29.44R
STAPLES        CLOUDY    70  41  35 SW17G24   29.42R
$$
  *****  WEATHER ELSEWHERE ACROSS MINNESOTA  *****

CITY           SKY/WX    TMP DP  RH WIND       PRES   REMARKS
DULUTH         CLOUDY    41  32  70 SE15      29.54F
INTRNTL FALLS  CLOUDY    62  36  37 SE16G23   29.36F
ELY            PTSUNNY   50  32  50 S13G20    29.53F
CLOQUET        CLOUDY    43  32  65 E10       29.52F THUNDER
WHEATON        CLOUDY    64  36  34 W12G20    29.47R
BRAINERD       CLOUDY    73  38  27 S20G29    29.41F
HIBBING        NOT AVBL
ALEXANDRIA     CLOUDY    69  43  38 SW17      29.45S
SAINT CLOUD    TSTM      73  43  33 S14       29.47R
MINNEAPOLIS    PTSUNNY   82  34  17 S23G44    29.49F
$$

  *****  WEATHER ACROSS SOUTH DAKOTA  *****

CITY           SKY/WX    TMP DP  RH WIND       PRES   REMARKS
SIOUX FALLS    CLOUDY    77  35  21 NW21G41   29.49F
BROOKINGS      CLOUDY    72  34  25 W26G32    29.51R
WATERTOWN      CLOUDY    65  33  30 NW17      29.51R
HURON          CLOUDY    66  40  38 NW21G26   29.55R
SISSETON         N/A     69  39  33 NW22G35   29.44R
ABERDEEN       CLOUDY    69  40  34 NW23G32   29.54R
MITCHELL       CLOUDY    71  38  29 NW17      29.57R
PIERRE         MOSUNNY   66  29  24 NW26G32   29.63R
MOBRIDGE       SUNNY     66  26  22 NW25G37   29.58R
RAPID CITY     MOSUNNY   54  28  36 NW40G52   29.73R
$$

  *****  SOME WEATHER IN NEARBY STATES *****

CITY           SKY/WX    TMP DP  RH WIND       PRES   REMARKS
GLASGOW MT     NOT AVBL
GREAT FALLS MT MOSUNNY   50   6  16 W22G38    29.82F
CHEYENNE WY    PTSUNNY   60  24  25 NW23G33   29.77F
SCOTTSBLUFF NE PTSUNNY   66  18  15 W23G35    29.71R
OMAHA NE       MOSUNNY   84  46  26 S26G36    29.58F
DES MOINES IA  MOSUNNY   82  36  19 S25G36    29.68F
DAVENPORT IA   SUNNY     80  30  16 S29G36    29.82F
CHICAGO IL     MOSUNNY   72  36  26 S20       29.90F
EAU CLAIRE WI  PTSUNNY   79  35  20 SW25G41   29.60F
LA CROSSE WI   SUNNY     82  33  17 S30G41    29.65F
$$

  *****  SOME NATIONAL WEATHER *****

CITY           SKY/WX    TMP DP  RH WIND       PRES   REMARKS
LA GUARDIA NY  SUNNY     50  20  30 NW15G22   30.07S
RALEIGH NC     MOSUNNY   66  29  24 NW5       30.12S
ATLANTA GA     PTSUNNY   78  46  32 CALM      30.03F
NEW ORLEANS LA CLOUDY    79  62  56 S15       30.03F
OKLAHOMA CITY  MOSUNNY   81  60  48 S21G28    29.74F
ALBUQUERQUE NM PTSUNNY   74  23  15 SW21      29.91F
SALT LAKE CITY MOSUNNY   49  18  29 NW5       30.03F
LOS ANGELES CA MOSUNNY   67  55  65 SW10      29.97F
BOISE ID       SUNNY     50  22  33 NW9       30.14F
SEATTLE WA     PTSUNNY   54  38  54 S9        30.26F
$$

*** WEATHER ACROSS MANITOBA...SASKATCHEWAN AND ONTARIO ***
                ***ONTARIO***

CITY           SKY/WX    TMP DP  RH WIND       PRES   REMARKS
GERALDTON      CLOUDY    34  27  75 SE7G17    29.81F
THUNDER BAY    CLOUDY    34  32  93 E17       29.73F WCI  23
SIOUX LOOKOUT  PTSUNNY   48  28  46 S15G24    29.50F
TORONTO        MOSUNNY   43  12  28 SE7       30.14F
BIG TROUT LK   MOSUNNY   45  27  49 SE9       29.67F
PICKLE LAKE    FLURRIES  36  27  69 E13       29.62F
DRYDEN         SUNNY     50  32  50 SE20G25   29.43F
KENORA         PTSUNNY   57  34  41 SE15G25   29.34F
$$
                *** MANITOBA***

CITY           SKY/WX    TMP DP  RH WIND       PRES   REMARKS
BRANDON        CLOUDY    48  41  76 W28G36    29.44R
DAUPHIN        CLOUDY    46  43  87 W23G36    29.39R
ISLAND LAKE    CLOUDY    36  34  93 E10G18    29.56F
PILOT MOUND      N/A     55  45  67 NW18G28     N/A
THE PAS        LGT SNOW  34  32  93 E8        29.42R
THOMPSON       LGT SNOW  19  16  86 NE21G29   29.67S DRFTSNOWWCI   3
WINNIPEG       NOT AVBL
LYNN LAKE      FLURRIES  12   9  85 NE16G23   29.73R WCI  -4
CHURCHILL      CRYSTALS   1  -2  85 N14       30.04R WCI -17
GILLAM         CLOUDY    14   7  73 NE16      29.81R WCI  -2
$$
                ***SASKATCHEWAN***

CITY           SKY/WX    TMP DP  RH WIND       PRES   REMARKS
ESTEVAN        PTSUNNY   52  28  40 W29G40    29.58R
KINDERSLEY     LGT RAIN  39  30  70 W41G55    29.50S
LLOYDMINSTER   LGT RAIN  34  30  86 N20G26    29.41R WCI  22
PRINCE ALBERT  CLOUDY    41  32  70 W14       29.40S
REGINA         PTSUNNY   48  30  49 W23G37    29.55R
YORKTON        PTSUNNY   45  36  70 W17G24    29.45F
N. BATTLEFORD  PTSUNNY   39  34  81 W17G23    29.42R
LA RONGE       LGT SNOW  32  30  93 NE15G26   29.50R WCI  22
SASKATOON      PTSUNNY   43  30  61 W20G25    29.47S
SWIFT CURRENT  MIX PCPN  39  32  75 W23G47    29.58F
$$
NOTE: THESE ARE AUTOMATED STATIONS WITH LIMITED QUALITY CONTROL
      "FAIR" INDICATES FEW OR NO CLOUDS BELOW 12,000 FEET WITH NO
      SIGNIFICANT WEATHER AND/OR OBSTRUCTIONS TO VISIBILITY.
      SKY/WX - SKY CONDITION AND SIGNIFICANT WEATHER.
      TMP - AIR TEMPERATURE.    DP   - DEWPOINT TEMPERATURE.
      RH  - RELATIVE HUMIDITY.  PRES - PRESSURE.
      HX  - HEAT INDEX.         WCI  - WIND CHILL INDEX.
$


USA.gov is the U.S. government's official web portal to all federal, state and local government web resources and services.